Location: Philomena
(55.1756°N, 111.6233°W)
Time: 08:44:36
(UTC+00:00)

PCSat - Pass Details

Date: 07 December 2023
Orbit: 784 x 791 km, 67.0° (Epoch: 23 February)

Event Time Altitude Azimuth Distance (km) Brightness Sun altitude
Exits shadow 13:08:35 39° 286° (WNW) 1,179 9.9 -19.7°
Maximum altitude 13:09:55 46° 325° (NW) 1,050 9.9 -19.5°
Drops below altitude 10° 13:15:08 10° 39° (NE) 2,365 12.3 -18.8°
Sets 13:17:40 0° 45° (NE) 3,298 13.2 -18.4°
